Stations météo

réclame
Mon MeteoGroup
AWG, Pays-Bas (6208): Température de l'air & dewpoint: 16.07.2019 05:00:00 - 22.07.2019 05:00:00 (CEST)AWG, Pays-Bas (6208): Vitesse du vent & gusts: 16.07.2019 05:00:00 - 22.07.2019 05:00:00 (CEST)AWG, Pays-Bas (6208): Direction du vent: 16.07.2019 05:00:00 - 22.07.2019 05:00:00 (CEST)AWG, Pays-Bas (6208): reduced air pressure: 16.07.2019 05:00:00 - 22.07.2019 05:00:00 (CEST)AWG, Pays-Bas (6208): visibility: 16.07.2019 05:00:00 - 22.07.2019 05:00:00 (CEST)
Date & Time tt [°C] td [°C] ff [km/h] ff [knt] fx [km/h] fx [knt] dd ppp [hPa] vv [km]
22.07.2019 05:00:00 16,6 12,8 34 18 36 19 SSW 1020,8 44
22.07.2019 04:00:00 16,9 13,2 29 16 32 18 SSW 1021,3 48
22.07.2019 03:00:00 16,9 13,4 28 15 29 16 S 1021,9 41
22.07.2019 02:00:00 17,5 13,2 21 11 22 12 SSW 1022,4 48
22.07.2019 01:00:00 17,6 13,8 15 8 22 12 SSW 1022,4 46
22.07.2019 00:00:00 17,8 13,8 15 8 18 10 - 1022,5 48
21.07.2019 23:00:00 17,8 12,5 9 5 11 6 WSW 1022,5 47
21.07.2019 22:00:00 17,9 12,0 15 8 18 10 W 1022,2 50
21.07.2019 21:00:00 17,7 12,0 18 10 22 12 W 1022,1 49
21.07.2019 20:00:00 17,9 12,0 22 12 25 14 W 1022,0 48
21.07.2019 19:00:00 18,1 10,0 24 13 25 14 W 1021,7 43
21.07.2019 18:00:00 18,0 10,8 26 14 25 14 W 1021,9 47
21.07.2019 17:00:00 17,6 12,0 26 14 25 14 W 1021,7 41
21.07.2019 16:00:00 17,4 11,2 26 14 29 16 W 1021,4 41
21.07.2019 15:00:00 17,0 12,4 29 16 32 18 W 1021,2 35
21.07.2019 14:00:00 17,1 12,7 34 18 36 19 W 1020,5 33
21.07.2019 13:00:00 17,0 13,2 34 18 32 18 W 1019,8 36
21.07.2019 12:00:00 16,9 13,3 31 17 32 18 W 1019,0 32
21.07.2019 11:00:00 17,0 13,3 31 17 32 18 W 1018,1 27
21.07.2019 10:00:00 17,2 13,7 29 16 29 16 W 1017,4 27
21.07.2019 09:00:00 17,2 13,7 28 15 29 16 W 1016,5 27
21.07.2019 08:00:00 17,3 13,8 31 17 29 16 W 1015,6 25
21.07.2019 07:00:00 17,3 13,7 28 15 29 16 W 1014,8 27
21.07.2019 06:00:00 17,5 13,6 29 16 29 16 W 1013,9 23
21.07.2019 05:00:00 17,7 13,6 34 18 32 18 W 1013,3 28
21.07.2019 04:00:00 17,5 13,8 29 16 29 16 WSW 1012,8 35
21.07.2019 03:00:00 17,8 14,2 28 15 29 16 W 1012,3 42
21.07.2019 02:00:00 18,0 14,9 28 15 29 16 W 1012,2 32
21.07.2019 01:00:00 18,2 15,5 24 13 29 16 W 1011,6 25
21.07.2019 00:00:00 18,7 16,7 29 16 32 18 SW 1011,1 16
20.07.2019 23:00:00 18,9 16,9 26 14 25 14 SSW 1010,8 20
20.07.2019 22:00:00 19,2 16,7 29 16 32 18 SW 1010,4 28
20.07.2019 21:00:00 19,7 16,7 31 17 40 21 SW 1009,8 35
20.07.2019 20:00:00 20,3 17,0 35 19 36 19 SW 1009,4 44
20.07.2019 19:00:00 19,5 14,5 39 21 47 25 S 1008,6 46
20.07.2019 18:00:00 20,5 16,9 29 16 58 31 SSW 1008,8 10
20.07.2019 17:00:00 20,7 17,0 22 12 29 16 SW 1008,8 42
20.07.2019 16:00:00 20,6 16,5 26 14 36 19 SSW 1009,0 36
20.07.2019 15:00:00 19,1 15,7 39 21 43 23 S 1008,9 46
20.07.2019 14:00:00 18,9 15,8 41 22 43 23 SSW 1008,9 48
20.07.2019 13:00:00 19,4 16,1 26 14 43 23 - 1009,0 41
20.07.2019 12:00:00 19,7 16,3 44 24 47 25 SSW 1008,4 43
20.07.2019 11:00:00 19,6 16,3 37 20 43 23 S 1008,0 9
20.07.2019 10:00:00 20,2 15,3 28 15 40 21 SSW 1008,1 36
20.07.2019 09:00:00 20,2 14,6 42 23 47 25 S 1007,3 45
20.07.2019 08:00:00 19,6 13,8 42 23 43 23 S 1007,7 44
20.07.2019 07:00:00 18,7 13,7 39 21 40 21 S 1008,3 32
20.07.2019 06:00:00 18,3 14,1 37 20 36 19 SE 1008,8 26
20.07.2019 05:00:00 18,5 14,6 35 19 36 19 SE 1009,4 22
20.07.2019 04:00:00 18,7 15,0 29 16 32 18 SE 1010,0 20
20.07.2019 03:00:00 18,4 16,3 16 9 22 12 E 1010,8 16
20.07.2019 02:00:00 17,1 14,1 9 5 32 18 SE 1011,4 12
20.07.2019 01:00:00 19,4 14,7 21 11 18 10 SSE 1012,3 27
20.07.2019 00:00:00 19,5 13,7 15 8 18 10 S 1012,6 29
19.07.2019 23:00:00 19,6 15,2 15 8 14 8 S 1012,8 43
19.07.2019 22:00:00 19,2 13,9 5 3 7 4 E 1012,9 38
19.07.2019 21:00:00 18,7 14,1 11 6 14 8 WNW 1013,0 46
19.07.2019 20:00:00 20,0 13,6 5 3 14 8 W 1013,0 42
19.07.2019 19:00:00 20,6 14,3 13 7 14 8 E 1013,0 49
19.07.2019 18:00:00 19,6 14,2 11 6 14 8 E 1013,0 44
19.07.2019 17:00:00 19,0 14,5 11 6 14 8 - 1013,5 45
19.07.2019 16:00:00 19,0 14,5 8 4 14 8 ENE 1013,6 8
19.07.2019 15:00:00 19,2 14,3 4 2 7 4 - 1013,7 41
19.07.2019 14:00:00 19,2 13,0 5 3 11 6 ESE 1013,6 43
19.07.2019 13:00:00 19,2 12,4 5 3 11 6 SSE 1013,5 45
19.07.2019 12:00:00 18,1 12,9 4 2 11 6 - 1013,6 30
19.07.2019 11:00:00 18,7 12,1 13 7 14 8 S 1013,5 48
19.07.2019 10:00:00 17,8 12,7 13 7 11 6 SSW 1013,2 42
19.07.2019 09:00:00 16,8 14,5 8 4 11 6 SSW 1013,0 32
19.07.2019 08:00:00 16,7 13,1 4 2 7 4 W 1012,8 40
19.07.2019 07:00:00 16,4 12,8 9 5 14 8 WNW 1012,3 41
19.07.2019 06:00:00 16,2 13,0 16 9 22 12 WNW 1012,0 48
19.07.2019 05:00:00 16,3 13,4 26 14 25 14 WNW 1011,5 49
19.07.2019 04:00:00 16,1 14,0 22 12 25 14 WNW 1011,5 37
19.07.2019 03:00:00 16,4 15,0 24 13 25 14 WNW 1011,1 33
19.07.2019 02:00:00 16,8 15,8 18 10 22 12 WNW 1010,8 48
19.07.2019 01:00:00 16,7 15,9 21 11 18 10 WNW 1010,4 50
19.07.2019 00:00:00 16,7 16,3 15 8 25 14 SSW 1010,3 6
18.07.2019 23:00:00 16,5 16,0 24 13 29 16 S 1010,0 3,2
18.07.2019 22:00:00 16,4 15,9 31 17 36 19 S 1010,0 15
18.07.2019 21:00:00 15,8 14,7 22 12 29 16 SSW 1010,1 2,6
18.07.2019 20:00:00 16,7 15,3 16 9 22 12 WSW 1010,5 6
18.07.2019 19:00:00 16,9 15,5 22 12 29 16 W 1010,2 8
18.07.2019 18:00:00 18,9 15,4 26 14 29 16 W 1010,2 23
18.07.2019 17:00:00 19,1 14,2 28 15 29 16 WSW 1010,0 29
18.07.2019 16:00:00 19,9 14,4 24 13 25 14 W 1009,9 27
18.07.2019 15:00:00 20,4 14,7 26 14 29 16 WSW 1009,8 10
18.07.2019 14:00:00 22,6 13,2 28 15 36 19 - 1009,6 16
18.07.2019 13:00:00 22,1 13,2 31 17 36 19 S 1009,7 18
18.07.2019 12:00:00 21,0 13,3 31 17 36 19 S 1009,8 15
18.07.2019 11:00:00 19,7 13,7 34 18 32 18 S 1010,2 13
18.07.2019 10:00:00 18,6 13,7 31 17 32 18 S 1010,2 11
18.07.2019 09:00:00 17,1 13,8 28 15 29 16 S 1010,5 11
18.07.2019 08:00:00 15,8 13,3 26 14 29 16 S 1010,5 11
18.07.2019 07:00:00 15,6 12,9 29 16 32 18 S 1010,8 14
18.07.2019 06:00:00 15,6 13,0 26 14 29 16 S 1011,0 17
18.07.2019 05:00:00 16,1 13,3 31 17 32 18 SE 1011,0 25
18.07.2019 04:00:00 16,5 13,9 31 17 32 18 SE 1011,5 24
18.07.2019 03:00:00 16,8 14,8 28 15 29 16 ESE 1012,2 19
18.07.2019 02:00:00 17,1 14,9 28 15 29 16 ESE 1012,8 20
18.07.2019 01:00:00 17,7 15,2 24 13 25 14 E 1013,0 37
18.07.2019 00:00:00 17,7 15,3 18 10 18 10 E 1013,3 27
17.07.2019 23:00:00 18,9 14,6 16 9 18 10 E 1013,5 30
17.07.2019 22:00:00 18,6 14,8 15 8 18 10 E 1013,7 32
17.07.2019 21:00:00 17,3 14,5 11 6 14 8 - 1013,9 31
17.07.2019 20:00:00 17,5 14,6 13 7 18 10 E 1014,1 35
17.07.2019 19:00:00 16,9 14,2 11 6 11 6 NE 1014,3 33
17.07.2019 18:00:00 16,9 14,0 11 6 11 6 NE 1014,7 33
17.07.2019 17:00:00 16,5 13,7 8 4 11 6 N 1015,3 31
17.07.2019 16:00:00 16,2 13,5 9 5 11 6 NNE 1015,7 33
17.07.2019 15:00:00 15,9 13,4 9 5 11 6 NNE 1015,8 40
17.07.2019 14:00:00 15,8 13,0 5 3 7 4 NE 1016,1 44
17.07.2019 13:00:00 15,7 12,9 4 2 11 6 - 1016,5 42
17.07.2019 12:00:00 15,7 12,8 9 5 11 6 S 1016,2 39
17.07.2019 11:00:00 14,8 12,3 5 3 11 6 WSW 1016,5 42
17.07.2019 10:00:00 14,8 12,6 8 4 11 6 W 1016,7 45
17.07.2019 09:00:00 14,6 12,7 5 3 11 6 WNW 1016,7 46
17.07.2019 08:00:00 14,8 12,8 5 3 11 6 W 1016,7 47
17.07.2019 07:00:00 14,8 12,8 11 6 18 10 WNW 1016,6 46
17.07.2019 06:00:00 15,0 12,5 9 5 14 8 NW 1016,8 50
17.07.2019 05:00:00 15,0 12,6 5 3 14 8 WNW 1016,8 50
17.07.2019 04:00:00 14,9 12,7 9 5 14 8 WNW 1016,9 50
17.07.2019 03:00:00 15,1 12,9 9 5 14 8 NW 1017,3 49
17.07.2019 02:00:00 15,0 12,5 11 6 18 10 NW 1017,5 50
17.07.2019 01:00:00 14,8 12,2 9 5 14 8 NW 1017,7 50
17.07.2019 00:00:00 14,9 12,0 15 8 18 10 WNW 1017,8 50
16.07.2019 23:00:00 15,0 12,3 13 7 18 10 WNW 1017,8 50
16.07.2019 22:00:00 15,0 12,7 18 10 22 12 WNW 1017,9 49
16.07.2019 21:00:00 14,9 12,7 16 9 18 10 WNW 1018,0 49
16.07.2019 20:00:00 15,0 12,6 15 8 18 10 WNW 1017,9 50
16.07.2019 19:00:00 15,2 12,5 9 5 18 10 W 1018,1 48
16.07.2019 18:00:00 15,3 12,4 16 9 18 10 WNW 1018,1 50
16.07.2019 17:00:00 15,2 12,6 18 10 25 14 WNW 1018,2 45
16.07.2019 16:00:00 15,2 12,6 18 10 25 14 W 1018,3 47
16.07.2019 15:00:00 14,8 13,1 21 11 29 16 WNW 1018,3 41
16.07.2019 14:00:00 14,5 13,1 22 12 25 14 WNW 1018,4 8
16.07.2019 13:00:00 14,3 13,2 26 14 29 16 WNW 1018,4 8
16.07.2019 12:00:00 14,5 13,2 24 13 29 16 WNW 1018,4 14
16.07.2019 11:00:00 14,3 12,5 26 14 32 18 WNW 1018,3 40
16.07.2019 10:00:00 14,2 12,6 28 15 32 18 WNW 1018,2 29
16.07.2019 09:00:00 14,2 12,7 28 15 32 18 WNW 1018,1 24
16.07.2019 08:00:00 13,9 12,4 29 16 36 19 WNW 1018,0 20
16.07.2019 07:00:00 13,9 12,3 28 15 36 19 WNW 1018,1 26
16.07.2019 06:00:00 13,9 11,9 28 15 32 18 NW 1018,0 40
16.07.2019 05:00:00 13,8 11,9 29 16 36 19 WNW 1018,2 29

tt = Température de l'air
td = dewpoint
ff = Vitesse du vent
fx = gusts
dd = Direction du vent
ppp = reduced air pressure
vv = visibility

stations d'obs. à proximité